User: anonymous   Login
Location: Newark
(48.2308°N, 120.8549°W)
Time: 17:10:44
(UTC+00:00)
Language:

Vanguard 2 Rocket - Orbit

View from above orbital plane
View from above orbital plane
View from above satellite
View from above satellite

Ground track
Ground track

The orbit data is extracted from the following two-line orbital elements,

1    12U 59001B   20157.78842460 -.00000029 +00000-0 -15925-4 0  9991
2    12 032.9017 031.7538 1664338 014.5799 349.7366 11.44290715278649
Epoch (UTC): 05 June 2020 18:55:19
Eccentricity: 0.1664338
inclination: 32.9017°
perigee height: 556 km
apogee height: 3325 km
right ascension of ascending node: 31.7538°
argument of perigee: 14.5799°
revolutions per day: 11.44290715
mean anomaly at epoch: 349.7366°
orbit number at epoch: 27864

The dashed part of the orbit path shows where the satellite is in the earth's shadow,  

DLR